Wetterdaten: Donnerstag, 16.05.2013
Datum Zeit Temperatur Luftfeuchte Luftdruck Regen Wind Richtung Richtung Taupunkt Windchill Windben
16.05.2013 00:00 10,2 C 65 % 1006,0 hPa 0,0 l/m 3,4 km/h (1 Bft) S-SO 157 3,9 C 10,2 C 1,6 km/h (1 Bft)
16.05.2013 00:05 10,2 C 64 % 1005,9 hPa 0,0 l/m 3,5 km/h (1 Bft) O 90 3,7 C 10,0 C 5,6 km/h (1 Bft)
16.05.2013 00:10 10,6 C 62 % 1005,9 hPa 0,0 l/m 4,3 km/h (1 Bft) O 90 3,6 C 10,1 C 3,2 km/h (1 Bft)
16.05.2013 00:15 10,4 C 62 % 1005,9 hPa 0,0 l/m 4,3 km/h (1 Bft) NO 45 3,4 C 10,1 C 4,2 km/h (1 Bft)
16.05.2013 00:20 10,2 C 62 % 1005,9 hPa 0,0 l/m 2,6 km/h (1 Bft) NO 45 3,3 C 10,1 C 6,3 km/h (2 Bft)
16.05.2013 00:25 9,7 C 64 % 1006,0 hPa 0,0 l/m 1,4 km/h (1 Bft) NO 45 3,2 C 9,8 C 1,9 km/h (1 Bft)
16.05.2013 00:30 9,5 C 64 % 1006,0 hPa 0,0 l/m 0,5 km/h (0 Bft) O 90 3,0 C 9,2 C 3,5 km/h (1 Bft)
16.05.2013 00:35 9,9 C 63 % 1006,0 hPa 0,0 l/m 1,9 km/h (1 Bft) O-SO 112 3,2 C 9,2 C 5,8 km/h (2 Bft)
16.05.2013 00:40 9,7 C 65 % 1006,0 hPa 0,0 l/m 4,8 km/h (1 Bft) NO 45 3,4 C 8,9 C 7,6 km/h (2 Bft)
16.05.2013 00:45 9,8 C 63 % 1005,8 hPa 0,0 l/m 5,1 km/h (1 Bft) O-SO 112 3,1 C 8,9 C 4,8 km/h (1 Bft)
16.05.2013 00:50 8,7 C 66 % 1005,8 hPa 0,0 l/m 3,7 km/h (1 Bft) N 360 2,7 C 9,1 C 3,4 km/h (1 Bft)
16.05.2013 00:55 8,7 C 69 % 1005,8 hPa 0,0 l/m 2,1 km/h (1 Bft) NO 45 3,3 C 8,6 C 2,6 km/h (1 Bft)
16.05.2013 01:00 8,9 C 68 % 1005,8 hPa 0,0 l/m 1,3 km/h (1 Bft) O 90 3,3 C 8,4 C 1,8 km/h (1 Bft)
16.05.2013 01:05 9,0 C 67 % 1005,9 hPa 0,0 l/m 1,8 km/h (1 Bft) O-NO 67 3,2 C 8,3 C 3,5 km/h (1 Bft)
16.05.2013 01:10 9,0 C 67 % 1005,9 hPa 0,0 l/m 2,9 km/h (1 Bft) SO 135 3,2 C 8,3 C 2,6 km/h (1 Bft)
16.05.2013 01:15 8,7 C 68 % 1005,9 hPa 0,0 l/m 2,9 km/h (1 Bft) O 90 3,1 C 8,1 C 3,4 km/h (1 Bft)
16.05.2013 01:20 8,8 C 68 % 1005,9 hPa 0,0 l/m 3,4 km/h (1 Bft) NO 45 3,2 C 8,0 C 6,6 km/h (2 Bft)
16.05.2013 01:25 8,7 C 67 % 1005,8 hPa 0,0 l/m 4,5 km/h (1 Bft) O 90 2,9 C 7,7 C 3,7 km/h (1 Bft)
16.05.2013 01:30 7,9 C 70 % 1005,8 hPa 0,0 l/m 3,2 km/h (1 Bft) NO 45 2,8 C 7,7 C 2,6 km/h (1 Bft)
16.05.2013 01:35 7,9 C 70 % 1005,8 hPa 0,0 l/m 1,6 km/h (1 Bft) NO 45 2,8 C 7,4 C 0,0 km/h (0 Bft)
16.05.2013 01:40 8,1 C 71 % 1005,8 hPa 0,0 l/m 1,6 km/h (1 Bft) O-SO 112 3,2 C 7,3 C 3,2 km/h (1 Bft)
16.05.2013 01:45 8,1 C 73 % 1005,4 hPa 0,0 l/m 2,4 km/h (1 Bft) NO 45 3,6 C 7,3 C 2,1 km/h (1 Bft)
16.05.2013 01:50 7,6 C 73 % 1005,4 hPa 0,0 l/m 2,9 km/h (1 Bft) O 90 3,1 C 7,1 C 1,9 km/h (1 Bft)
16.05.2013 01:55 7,5 C 73 % 1005,4 hPa 0,0 l/m 2,1 km/h (1 Bft) O-SO 112 3,0 C 7,0 C 0,0 km/h (0 Bft)
16.05.2013 02:00 7,5 C 74 % 1005,4 hPa 0,0 l/m 1,4 km/h (1 Bft) NO 45 3,2 C 6,6 C 2,6 km/h (1 Bft)
16.05.2013 02:05 8,6 C 71 % 1005,6 hPa 0,0 l/m 2,1 km/h (1 Bft) O 90 3,6 C 6,9 C 3,5 km/h (1 Bft)
16.05.2013 02:10 8,0 C 70 % 1005,6 hPa 0,0 l/m 3,7 km/h (1 Bft) O-SO 112 2,9 C 7,2 C 2,1 km/h (1 Bft)
16.05.2013 02:15 7,2 C 70 % 1005,6 hPa 0,0 l/m 2,6 km/h (1 Bft) N-NO 22 2,1 C 7,0 C 0,0 km/h (0 Bft)
16.05.2013 02:20 7,5 C 75 % 1005,6 hPa 0,0 l/m 1,0 km/h (0 Bft) NO 45 3,4 C 6,6 C 3,9 km/h (1 Bft)
16.05.2013 02:25 7,6 C 75 % 1005,3 hPa 0,0 l/m 1,6 km/h (1 Bft) W 270 3,5 C 6,7 C 2,3 km/h (1 Bft)
16.05.2013 02:30 6,9 C 75 % 1005,3 hPa 0,0 l/m 1,8 km/h (1 Bft) O 90 2,8 C 6,4 C 0,0 km/h (0 Bft)
16.05.2013 02:35 6,9 C 76 % 1005,3 hPa 0,0 l/m 1,4 km/h (1 Bft) O 90 3,0 C 6,3 C 0,0 km/h (0 Bft)
16.05.2013 02:40 6,7 C 77 % 1005,3 hPa 0,0 l/m 1,0 km/h (0 Bft) N 360 3,0 C 6,2 C 0,0 km/h (0 Bft)
16.05.2013 02:45 6,7 C 77 % 1004,8 hPa 0,0 l/m 1,1 km/h (1 Bft) O 90 3,0 C 6,1 C 2,3 km/h (1 Bft)
16.05.2013 02:50 6,9 C 77 % 1004,8 hPa 0,0 l/m 1,3 km/h (1 Bft) O-NO 67 3,2 C 6,2 C 0,0 km/h (0 Bft)
16.05.2013 02:55 6,7 C 77 % 1004,8 hPa 0,0 l/m 0,6 km/h (0 Bft) O 90 3,0 C 6,1 C 0,0 km/h (0 Bft)
16.05.2013 03:00 6,0 C 77 % 1004,8 hPa 0,0 l/m 0,0 km/h (0 Bft) O 90 2,3 C 5,7 C 0,0 km/h (0 Bft)
16.05.2013 03:05 5,9 C 78 % 1004,8 hPa 0,0 l/m 0,0 km/h (0 Bft) O 90 2,4 C 5,5 C 0,0 km/h (0 Bft)
16.05.2013 03:10 5,5 C 78 % 1004,8 hPa 0,0 l/m 0,0 km/h (0 Bft) N-NO 22 2,0 C 5,2 C 0,0 km/h (0 Bft)
16.05.2013 03:15 5,2 C 78 % 1004,8 hPa 0,0 l/m 0,0 km/h (0 Bft) N-NO 22 1,7 C 4,9 C 0,0 km/h (0 Bft)
16.05.2013 03:20 5,2 C 79 % 1004,8 hPa 0,0 l/m 0,3 km/h (0 Bft) O-NO 67 1,9 C 4,6 C 2,4 km/h (1 Bft)
16.05.2013 03:25 5,4 C 79 % 1004,7 hPa 0,0 l/m 0,3 km/h (0 Bft) O 90 2,1 C 4,7 C 0,0 km/h (0 Bft)
16.05.2013 03:30 6,1 C 80 % 1004,7 hPa 0,0 l/m 0,3 km/h (0 Bft) NO 45 2,9 C 5,0 C 0,0 km/h (0 Bft)
16.05.2013 03:35 5,9 C 81 % 1004,7 hPa 0,0 l/m 0,0 km/h (0 Bft) O 90 2,9 C 5,2 C 0,0 km/h (0 Bft)
16.05.2013 03:40 5,5 C 81 % 1004,7 hPa 0,0 l/m 0,0 km/h (0 Bft) W-SW 247 2,5 C 5,1 C 0,0 km/h (0 Bft)
16.05.2013 03:45 5,4 C 81 % 1004,6 hPa 0,0 l/m 0,2 km/h (0 Bft) SO 135 2,4 C 4,9 C 0,0 km/h (0 Bft)
16.05.2013 03:50 5,3 C 82 % 1004,6 hPa 0,0 l/m 0,2 km/h (0 Bft) O-SO 112 2,5 C 4,7 C 0,0 km/h (0 Bft)
16.05.2013 03:55 5,3 C 82 % 1004,6 hPa 0,0 l/m 0,0 km/h (0 Bft) O-SO 112 2,5 C 4,6 C 0,0 km/h (0 Bft)
16.05.2013 04:00 6,2 C 83 % 1004,6 hPa 0,0 l/m 0,6 km/h (0 Bft) O-NO 67 3,5 C 5,1 C 2,7 km/h (1 Bft)
16.05.2013 04:05 6,6 C 85 % 1004,4 hPa 0,0 l/m 0,6 km/h (0 Bft) O-SO 112 4,3 C 5,6 C 0,0 km/h (0 Bft)
16.05.2013 04:10 5,7 C 85 % 1004,4 hPa 0,0 l/m 0,3 km/h (0 Bft) S 180 3,4 C 5,5 C 0,0 km/h (0 Bft)
16.05.2013 04:15 5,7 C 84 % 1004,4 hPa 0,0 l/m 0,2 km/h (0 Bft) S 180 3,2 C 5,3 C 0,0 km/h (0 Bft)
16.05.2013 04:20 5,7 C 85 % 1004,4 hPa 0,0 l/m 0,2 km/h (0 Bft) W-SW 247 3,4 C 5,2 C 2,1 km/h (1 Bft)
16.05.2013 04:25 5,8 C 85 % 1003,8 hPa 0,0 l/m 0,2 km/h (0 Bft) O-SO 112 3,5 C 5,4 C 0,0 km/h (0 Bft)
16.05.2013 04:30 6,2 C 85 % 1003,8 hPa 0,0 l/m 0,3 km/h (0 Bft) O-SO 112 3,9 C 6,1 C 0,0 km/h (0 Bft)
16.05.2013 04:35 6,0 C 85 % 1003,8 hPa 0,0 l/m 0,0 km/h (0 Bft) S 180 3,7 C 6,1 C 0,0 km/h (0 Bft)
16.05.2013 04:40 6,2 C 85 % 1003,8 hPa 0,0 l/m 0,5 km/h (0 Bft) O 90 3,9 C 5,8 C 1,6 km/h (1 Bft)
16.05.2013 04:45 6,5 C 86 % 1003,8 hPa 0,0 l/m 0,6 km/h (0 Bft) O 90 4,3 C 5,8 C 0,0 km/h (0 Bft)
16.05.2013 04:50 6,5 C 85 % 1003,8 hPa 0,0 l/m 0,2 km/h (0 Bft) N-NW 337 4,2 C 6,0 C 0,0 km/h (0 Bft)
16.05.2013 04:55 6,5 C 85 % 1003,8 hPa 0,0 l/m 0,0 km/h (0 Bft) O 90 4,2 C 6,0 C 0,0 km/h (0 Bft)
16.05.2013 05:00 6,7 C 86 % 1003,8 hPa 0,0 l/m 0,2 km/h (0 Bft) SW 225 4,5 C 6,2 C 0,0 km/h (0 Bft)
16.05.2013 05:05 6,6 C 85 % 1003,3 hPa 0,0 l/m 0,2 km/h (0 Bft) S-SW 202 4,3 C 6,2 C 0,0 km/h (0 Bft)
16.05.2013 05:10 6,5 C 85 % 1003,3 hPa 0,0 l/m 0,0 km/h (0 Bft) S-SO 157 4,2 C 6,2 C 0,0 km/h (0 Bft)
16.05.2013 05:15 6,5 C 85 % 1003,3 hPa 0,0 l/m 0,0 km/h (0 Bft) SO 135 4,2 C 6,2 C 0,0 km/h (0 Bft)
16.05.2013 05:20 6,6 C 85 % 1003,3 hPa 0,0 l/m 0,0 km/h (0 Bft) SO 135 4,3 C 6,2 C 0,0 km/h (0 Bft)
16.05.2013 05:25 6,8 C 85 % 1003,3 hPa 0,0 l/m 0,2 km/h (0 Bft) SO 135 4,5 C 6,3 C 0,0 km/h (0 Bft)
16.05.2013 05:30 6,8 C 85 % 1003,3 hPa 0,0 l/m 0,2 km/h (0 Bft) SO 135 4,5 C 6,4 C 0,0 km/h (0 Bft)
16.05.2013 05:35 6,9 C 85 % 1003,3 hPa 0,0 l/m 0,0 km/h (0 Bft) SO 135 4,6 C 6,4 C 0,0 km/h (0 Bft)
16.05.2013 05:40 7,1 C 85 % 1003,3 hPa 0,0 l/m 0,0 km/h (0 Bft) O 90 4,8 C 6,7 C 0,0 km/h (0 Bft)
16.05.2013 05:45 7,3 C 85 % 1002,9 hPa 0,0 l/m 0,0 km/h (0 Bft) N-NO 22 4,9 C 6,9 C 0,0 km/h (0 Bft)
16.05.2013 05:50 7,3 C 85 % 1002,9 hPa 0,0 l/m 0,0 km/h (0 Bft) S-SO 157 4,9 C 7,2 C 0,0 km/h (0 Bft)
16.05.2013 05:55 7,3 C 85 % 1002,9 hPa 0,0 l/m 0,0 km/h (0 Bft) S-SO 157 4,9 C 7,3 C 0,0 km/h (0 Bft)
16.05.2013 06:00 7,6 C 85 % 1002,9 hPa 0,0 l/m 0,0 km/h (0 Bft) S-SO 157 5,2 C 7,5 C 0,0 km/h (0 Bft)
16.05.2013 06:05 7,8 C 85 % 1002,9 hPa 0,0 l/m 0,0 km/h (0 Bft) S-SO 157 5,4 C 7,7 C 0,0 km/h (0 Bft)
16.05.2013 06:10 7,9 C 85 % 1002,9 hPa 0,0 l/m 0,0 km/h (0 Bft) W-NW 292 5,5 C 7,9 C 0,0 km/h (0 Bft)
16.05.2013 06:15 8,4 C 85 % 1002,9 hPa 0,0 l/m 0,0 km/h (0 Bft) N 360 6,0 C 8,2 C 0,0 km/h (0 Bft)
16.05.2013 06:20 8,8 C 86 % 1002,9 hPa 0,0 l/m 0,0 km/h (0 Bft) W-SW 247 6,6 C 8,6 C 0,0 km/h (0 Bft)
16.05.2013 06:25 8,9 C 86 % 1002,9 hPa 0,0 l/m 0,3 km/h (0 Bft) N-NO 22 6,7 C 8,9 C 3,1 km/h (1 Bft)
16.05.2013 06:30 9,2 C 87 % 1002,9 hPa 0,0 l/m 0,6 km/h (0 Bft) W-SW 247 7,2 C 9,1 C 0,0 km/h (0 Bft)
16.05.2013 06:35 9,3 C 87 % 1002,9 hPa 0,0 l/m 0,3 km/h (0 Bft) S-SW 202 7,2 C 9,3 C 0,0 km/h (0 Bft)
16.05.2013 06:40 9,4 C 87 % 1002,9 hPa 0,0 l/m 0,0 km/h (0 Bft) W-SW 247 7,3 C 9,4 C 0,0 km/h (0 Bft)
16.05.2013 06:45 9,5 C 87 % 1002,7 hPa 0,0 l/m 0,6 km/h (0 Bft) N-NW 337 7,4 C 9,5 C 5,6 km/h (1 Bft)
16.05.2013 06:50 9,7 C 89 % 1002,7 hPa 0,0 l/m 2,4 km/h (1 Bft) N-NO 22 8,0 C 9,6 C 2,7 km/h (1 Bft)
16.05.2013 06:55 9,7 C 89 % 1002,7 hPa 0,0 l/m 3,1 km/h (1 Bft) N-NW 337 8,0 C 9,8 C 5,1 km/h (1 Bft)
16.05.2013 07:00 9,8 C 90 % 1002,7 hPa 0,0 l/m 2,9 km/h (1 Bft) N 360 8,2 C 9,9 C 3,9 km/h (1 Bft)
16.05.2013 07:05 9,8 C 89 % 1002,2 hPa 0,0 l/m 3,2 km/h (1 Bft) W-NW 292 8,1 C 9,9 C 2,4 km/h (1 Bft)
16.05.2013 07:10 9,8 C 90 % 1002,2 hPa 0,0 l/m 2,9 km/h (1 Bft) NO 45 8,2 C 10,0 C 5,5 km/h (1 Bft)
16.05.2013 07:15 9,9 C 90 % 1002,2 hPa 0,0 l/m 3,1 km/h (1 Bft) N-NW 337 8,3 C 10,0 C 3,4 km/h (1 Bft)
16.05.2013 07:20 9,9 C 90 % 1002,2 hPa 0,0 l/m 2,3 km/h (1 Bft) S-SW 202 8,3 C 10,0 C 0,0 km/h (0 Bft)
16.05.2013 07:25 9,9 C 90 % 1002,1 hPa 0,0 l/m 2,1 km/h (1 Bft) N-NW 337 8,3 C 10,0 C 1,9 km/h (1 Bft)
16.05.2013 07:30 10,0 C 90 % 1002,1 hPa 0,0 l/m 2,7 km/h (1 Bft) NO 45 8,4 C 10,1 C 4,5 km/h (1 Bft)
16.05.2013 07:35 10,0 C 90 % 1002,1 hPa 0,0 l/m 3,2 km/h (1 Bft) N-NW 337 8,4 C 10,1 C 4,5 km/h (1 Bft)
16.05.2013 07:40 10,0 C 90 % 1002,1 hPa 0,0 l/m 4,0 km/h (1 Bft) W-SW 247 8,4 C 10,2 C 6,0 km/h (2 Bft)
16.05.2013 07:45 10,1 C 90 % 1001,6 hPa 0,0 l/m 3,9 km/h (1 Bft) NW 315 8,5 C 10,2 C 1,8 km/h (1 Bft)
16.05.2013 07:50 10,1 C 90 % 1001,6 hPa 0,0 l/m 2,9 km/h (1 Bft) N-NW 337 8,5 C 10,3 C 0,0 km/h (0 Bft)
16.05.2013 07:55 10,2 C 89 % 1001,6 hPa 0,0 l/m 1,3 km/h (1 Bft) W-NW 292 8,5 C 10,3 C 0,0 km/h (0 Bft)
16.05.2013 08:00 10,2 C 89 % 1001,6 hPa 0,0 l/m 1,4 km/h (1 Bft) W-NW 292 8,5 C 10,3 C 3,5 km/h (1 Bft)
16.05.2013 08:05 10,2 C 89 % 1001,5 hPa 0,0 l/m 2,4 km/h (1 Bft) NW 315 8,5 C 10,3 C 3,2 km/h (1 Bft)
16.05.2013 08:10 10,1 C 89 % 1001,5 hPa 0,0 l/m 2,4 km/h (1 Bft) W-NW 292 8,4 C 10,3 C 2,9 km/h (1 Bft)
16.05.2013 08:15 10,1 C 89 % 1001,5 hPa 0,0 l/m 1,6 km/h (1 Bft) N 360 8,4 C 10,3 C 0,0 km/h (0 Bft)
16.05.2013 08:20 9,9 C 89 % 1001,5 hPa 0,0 l/m 1,8 km/h (1 Bft) W-SW 247 8,2 C 10,2 C 0,0 km/h (0 Bft)
16.05.2013 08:25 10,0 C 89 % 1001,4 hPa 0,0 l/m 1,4 km/h (1 Bft) N-NW 337 8,3 C 10,1 C 1,6 km/h (1 Bft)
16.05.2013 08:30 9,9 C 89 % 1001,4 hPa 0,0 l/m 1,6 km/h (1 Bft) N-NW 337 8,2 C 10,1 C 5,3 km/h (1 Bft)
16.05.2013 08:35 9,9 C 89 % 1001,4 hPa 0,0 l/m 2,1 km/h (1 Bft) N 360 8,2 C 10,0 C 2,4 km/h (1 Bft)
16.05.2013 08:40 9,8 C 89 % 1001,4 hPa 0,0 l/m 1,8 km/h (1 Bft) NO 45 8,1 C 10,0 C 1,9 km/h (1 Bft)
16.05.2013 08:45 9,8 C 89 % 1000,9 hPa 0,0 l/m 1,4 km/h (1 Bft) W-NW 292 8,1 C 10,0 C 2,4 km/h (1 Bft)
16.05.2013 08:50 9,9 C 89 % 1000,9 hPa 0,0 l/m 0,5 km/h (0 Bft) S 180 8,2 C 9,9 C 0,0 km/h (0 Bft)
16.05.2013 08:55 9,9 C 89 % 1000,9 hPa 0,0 l/m 0,3 km/h (0 Bft) SW 225 8,2 C 9,9 C 0,0 km/h (0 Bft)
16.05.2013 09:00 9,9 C 89 % 1000,9 hPa 0,0 l/m 0,3 km/h (0 Bft) W-NW 292 8,2 C 9,9 C 1,8 km/h (1 Bft)
16.05.2013 09:05 10,0 C 88 % 1000,9 hPa 0,0 l/m 0,5 km/h (0 Bft) NO 45 8,1 C 10,0 C 1,8 km/h (1 Bft)
16.05.2013 09:10 10,0 C 88 % 1000,9 hPa 0,0 l/m 0,6 km/h (0 Bft) N-NO 22 8,1 C 10,0 C 0,0 km/h (0 Bft)
16.05.2013 09:15 10,1 C 88 % 1000,9 hPa 0,0 l/m 0,6 km/h (0 Bft) S 180 8,2 C 10,1 C 0,0 km/h (0 Bft)
16.05.2013 09:20 10,2 C 88 % 1000,9 hPa 0,0 l/m 1,6 km/h (1 Bft) O 90 8,3 C 10,3 C 3,1 km/h (1 Bft)
16.05.2013 09:25 10,3 C 88 % 1000,8 hPa 0,0 l/m 2,1 km/h (1 Bft) O-NO 67 8,4 C 10,3 C 5,5 km/h (1 Bft)
16.05.2013 09:30 10,5 C 88 % 1000,8 hPa 0,0 l/m 1,4 km/h (1 Bft) O 90 8,6 C 10,6 C 2,6 km/h (1 Bft)
16.05.2013 09:35 10,7 C 87 % 1000,8 hPa 0,0 l/m 2,1 km/h (1 Bft) O-SO 112 8,6 C 10,8 C 3,1 km/h (1 Bft)
16.05.2013 09:40 10,9 C 86 % 1000,8 hPa 0,0 l/m 2,9 km/h (1 Bft) NO 45 8,7 C 11,1 C 5,0 km/h (1 Bft)
16.05.2013 09:45 10,9 C 85 % 1000,9 hPa 0,0 l/m 2,9 km/h (1 Bft) O 90 8,5 C 11,3 C 3,2 km/h (1 Bft)
16.05.2013 09:50 11,4 C 84 % 1000,9 hPa 0,0 l/m 2,7 km/h (1 Bft) O-NO 67 8,8 C 11,7 C 1,8 km/h (1 Bft)
16.05.2013 09:55 11,7 C 83 % 1000,9 hPa 0,0 l/m 2,4 km/h (1 Bft) W-NW 292 8,9 C 12,1 C 3,5 km/h (1 Bft)
16.05.2013 10:00 12,2 C 81 % 1000,9 hPa 0,0 l/m 2,3 km/h (1 Bft) O 90 9,0 C 12,6 C 7,1 km/h (2 Bft)
16.05.2013 10:05 12,4 C 79 % 1000,7 hPa 0,0 l/m 2,9 km/h (1 Bft) W-SW 247 8,9 C 12,9 C 1,9 km/h (1 Bft)
16.05.2013 10:10 13,7 C 71 % 1000,7 hPa 0,0 l/m 3,1 km/h (1 Bft) N 360 8,5 C 13,7 C 9,5 km/h (2 Bft)
16.05.2013 10:15 14,3 C 70 % 1000,7 hPa 0,0 l/m 2,7 km/h (1 Bft) NW 315 8,9 C 14,5 C 2,6 km/h (1 Bft)
16.05.2013 10:20 17,6 C 61 % 1000,7 hPa 0,0 l/m 2,1 km/h (1 Bft) S 180 10,0 C 16,4 C 4,2 km/h (1 Bft)
16.05.2013 10:25 19,3 C 51 % 1000,6 hPa 0,0 l/m 2,9 km/h (1 Bft) NW 315 8,9 C 18,5 C 4,0 km/h (1 Bft)
16.05.2013 10:30 20,9 C 44 % 1000,6 hPa 0,0 l/m 6,6 km/h (2 Bft) N 360 8,2 C 21,3 C 21,4 km/h (4 Bft)
16.05.2013 10:35 20,4 C 42 % 1000,6 hPa 0,0 l/m 7,6 km/h (2 Bft) N-NW 337 7,1 C 21,3 C 7,7 km/h (2 Bft)
16.05.2013 10:40 22,1 C 37 % 1000,6 hPa 0,0 l/m 6,1 km/h (2 Bft) N 360 6,7 C 23,1 C 5,6 km/h (1 Bft)
16.05.2013 10:45 22,2 C 35 % 1000,4 hPa 0,0 l/m 5,1 km/h (1 Bft) N-NO 22 6,0 C 23,9 C 17,4 km/h (3 Bft)
16.05.2013 10:50 21,4 C 37 % 1000,4 hPa 0,0 l/m 7,6 km/h (2 Bft) W 270 6,1 C 23,3 C 12,2 km/h (2 Bft)
16.05.2013 10:55 21,2 C 37 % 1000,4 hPa 0,0 l/m 8,9 km/h (2 Bft) NW 315 5,9 C 22,7 C 15,3 km/h (3 Bft)
16.05.2013 11:00 20,7 C 39 % 1000,4 hPa 0,0 l/m 7,9 km/h (2 Bft) N-NW 337 6,2 C 21,9 C 7,2 km/h (2 Bft)
16.05.2013 11:05 20,4 C 40 % 1000,6 hPa 0,0 l/m 7,1 km/h (2 Bft) N-NW 337 6,3 C 21,7 C 8,4 km/h (2 Bft)
16.05.2013 11:10 20,8 C 40 % 1000,6 hPa 0,0 l/m 7,4 km/h (2 Bft) NW 315 6,7 C 21,0 C 3,4 km/h (1 Bft)
16.05.2013 11:15 22,3 C 38 % 1000,6 hPa 0,0 l/m 6,8 km/h (2 Bft) N 360 7,3 C 22,2 C 8,2 km/h (2 Bft)
16.05.2013 11:20 22,4 C 35 % 1000,6 hPa 0,0 l/m 6,4 km/h (2 Bft) O-SO 112 6,2 C 23,4 C 6,9 km/h (2 Bft)
16.05.2013 11:25 22,8 C 37 % 1000,9 hPa 0,0 l/m 6,4 km/h (2 Bft) N-NW 337 7,3 C 23,7 C 4,2 km/h (1 Bft)
16.05.2013 11:30 19,9 C 41 % 1000,9 hPa 0,0 l/m 5,8 km/h (2 Bft) N-NW 337 6,3 C 22,6 C 3,9 km/h (1 Bft)
16.05.2013 11:35 19,7 C 43 % 1000,9 hPa 0,0 l/m 6,3 km/h (2 Bft) N 360 6,8 C 21,8 C 9,0 km/h (2 Bft)
16.05.2013 11:40 19,5 C 45 % 1000,9 hPa 0,0 l/m 6,6 km/h (2 Bft) N 360 7,2 C 20,9 C 10,1 km/h (2 Bft)
16.05.2013 11:45 20,4 C 43 % 1000,1 hPa 0,0 l/m 6,3 km/h (2 Bft) N 360 7,4 C 21,0 C 6,8 km/h (2 Bft)
16.05.2013 11:50 23,4 C 38 % 1000,1 hPa 0,0 l/m 5,3 km/h (1 Bft) W-NW 292 8,3 C 22,4 C 5,5 km/h (1 Bft)
16.05.2013 11:55 23,1 C 36 % 1000,1 hPa 0,0 l/m 5,5 km/h (1 Bft) N 360 7,2 C 23,5 C 5,8 km/h (2 Bft)
16.05.2013 12:00 22,7 C 37 % 1000,1 hPa 0,0 l/m 6,0 km/h (2 Bft) N-NW 337 7,3 C 23,7 C 11,9 km/h (2 Bft)
16.05.2013 12:05 22,0 C 37 % 1000,0 hPa 0,0 l/m 7,9 km/h (2 Bft) NO 45 6,6 C 22,8 C 15,4 km/h (3 Bft)
16.05.2013 12:10 22,2 C 37 % 1000,0 hPa 0,0 l/m 8,7 km/h (2 Bft) N-NW 337 6,8 C 22,6 C 12,2 km/h (2 Bft)
16.05.2013 12:15 22,6 C 37 % 1000,0 hPa 0,0 l/m 8,5 km/h (2 Bft) N-NW 337 7,2 C 22,6 C 11,1 km/h (2 Bft)
16.05.2013 12:20 21,2 C 39 % 1000,0 hPa 0,0 l/m 8,0 km/h (2 Bft) W-NW 292 6,7 C 22,7 C 13,4 km/h (3 Bft)
16.05.2013 12:25 20,4 C 39 % 1000,2 hPa 0,0 l/m 7,6 km/h (2 Bft) N 360 6,0 C 22,0 C 10,5 km/h (2 Bft)
16.05.2013 12:30 20,3 C 39 % 1000,2 hPa 0,0 l/m 8,9 km/h (2 Bft) N-NW 337 5,9 C 20,6 C 9,7 km/h (2 Bft)
16.05.2013 12:35 20,3 C 40 % 1000,2 hPa 0,0 l/m 7,6 km/h (2 Bft) N 360 6,3 C 21,0 C 14,3 km/h (3 Bft)
16.05.2013 12:40 19,8 C 42 % 1000,2 hPa 0,0 l/m 7,2 km/h (2 Bft) N 360 6,5 C 21,0 C 8,4 km/h (2 Bft)
16.05.2013 12:45 19,9 C 43 % 1000,1 hPa 0,0 l/m 7,9 km/h (2 Bft) W-NW 292 6,9 C 20,5 C 5,0 km/h (1 Bft)
16.05.2013 12:50 20,0 C 43 % 1000,1 hPa 0,0 l/m 6,9 km/h (2 Bft) W-NW 292 7,0 C 21,0 C 7,4 km/h (2 Bft)
16.05.2013 12:55 20,3 C 44 % 1000,1 hPa 0,0 l/m 6,3 km/h (2 Bft) W 270 7,6 C 21,2 C 12,6 km/h (3 Bft)
16.05.2013 13:00 20,1 C 45 % 1000,1 hPa 0,0 l/m 6,8 km/h (2 Bft) NO 45 7,8 C 21,3 C 14,0 km/h (3 Bft)
16.05.2013 13:05 19,9 C 47 % 999,9 hPa 0,0 l/m 6,9 km/h (2 Bft) W-NW 292 8,3 C 21,0 C 4,5 km/h (1 Bft)
16.05.2013 13:10 20,1 C 47 % 999,9 hPa 0,0 l/m 6,4 km/h (2 Bft) W-NW 292 8,4 C 21,0 C 2,3 km/h (1 Bft)
16.05.2013 13:15 20,2 C 46 % 999,9 hPa 0,0 l/m 5,6 km/h (1 Bft) N 360 8,2 C 21,2 C 8,4 km/h (2 Bft)
16.05.2013 13:20 20,8 C 45 % 999,9 hPa 0,0 l/m 4,7 km/h (1 Bft) W-NW 292 8,4 C 21,8 C 6,9 km/h (2 Bft)
16.05.2013 13:25 21,3 C 44 % 999,8 hPa 0,0 l/m 5,1 km/h (1 Bft) W-NW 292 8,5 C 22,4 C 2,9 km/h (1 Bft)
16.05.2013 13:30 21,8 C 43 % 999,8 hPa 0,0 l/m 5,1 km/h (1 Bft) N-NW 337 8,7 C 23,0 C 5,8 km/h (2 Bft)
16.05.2013 13:35 22,2 C 42 % 999,8 hPa 0,0 l/m 5,5 km/h (1 Bft) W-SW 247 8,7 C 23,5 C 6,4 km/h (2 Bft)
16.05.2013 13:40 22,5 C 39 % 999,8 hPa 0,0 l/m 6,0 km/h (2 Bft) W 270 7,8 C 24,1 C 9,5 km/h (2 Bft)
16.05.2013 13:45 22,1 C 41 % 999,7 hPa 0,0 l/m 5,6 km/h (1 Bft) W-NW 292 8,2 C 24,1 C 13,0 km/h (3 Bft)
16.05.2013 13:50 21,9 C 42 % 999,7 hPa 0,0 l/m 6,0 km/h (2 Bft) S 180 8,4 C 24,1 C 3,5 km/h (1 Bft)
16.05.2013 13:55 22,0 C 43 % 999,7 hPa 0,0 l/m 6,0 km/h (2 Bft) NW 315 8,8 C 24,0 C 6,4 km/h (2 Bft)
16.05.2013 14:00 23,1 C 38 % 999,7 hPa 0,0 l/m 4,3 km/h (1 Bft) W-NW 292 8,0 C 24,4 C 2,7 km/h (1 Bft)
16.05.2013 14:05 23,3 C 34 % 999,5 hPa 0,0 l/m 4,5 km/h (1 Bft) N-NW 337 6,6 C 24,9 C 5,6 km/h (1 Bft)
16.05.2013 14:10 24,2 C 35 % 999,5 hPa 0,0 l/m 4,3 km/h (1 Bft) N 360 7,8 C 26,0 C 11,1 km/h (2 Bft)
16.05.2013 14:15 24,0 C 32 % 999,5 hPa 0,0 l/m 5,5 km/h (1 Bft) W 270 6,3 C 26,4 C 9,3 km/h (2 Bft)
16.05.2013 14:20 23,0 C 33 % 999,5 hPa 0,0 l/m 7,2 km/h (2 Bft) W 270 5,9 C 25,6 C 7,4 km/h (2 Bft)
16.05.2013 14:25 23,3 C 34 % 999,9 hPa 0,0 l/m 6,9 km/h (2 Bft) N-NO 22 6,6 C 25,4 C 10,8 km/h (2 Bft)
16.05.2013 14:30 23,3 C 34 % 999,9 hPa 0,0 l/m 5,3 km/h (1 Bft) W-NW 292 6,6 C 25,4 C 8,0 km/h (2 Bft)
16.05.2013 14:35 22,7 C 34 % 999,9 hPa 0,0 l/m 6,0 km/h (2 Bft) W-NW 292 6,0 C 25,2 C 8,7 km/h (2 Bft)
16.05.2013 14:40 23,1 C 33 % 999,9 hPa 0,0 l/m 6,3 km/h (2 Bft) W-NW 292 5,9 C 24,6 C 8,0 km/h (2 Bft)
16.05.2013 14:45 23,4 C 34 % 1000,0 hPa 0,0 l/m 5,8 km/h (2 Bft) W-SW 247 6,6 C 24,9 C 2,9 km/h (1 Bft)
16.05.2013 14:50 23,5 C 33 % 1000,0 hPa 0,0 l/m 5,6 km/h (1 Bft) NW 315 6,3 C 25,6 C 15,0 km/h (3 Bft)
16.05.2013 14:55 22,6 C 35 % 1000,0 hPa 0,0 l/m 6,4 km/h (2 Bft) W 270 6,4 C 25,0 C 11,4 km/h (2 Bft)
16.05.2013 15:00 22,2 C 36 % 1000,0 hPa 0,0 l/m 7,7 km/h (2 Bft) W-NW 292 6,4 C 23,7 C 4,7 km/h (1 Bft)
16.05.2013 15:05 22,0 C 35 % 1000,1 hPa 0,0 l/m 6,8 km/h (2 Bft) W-NW 292 5,8 C 23,7 C 10,6 km/h (2 Bft)
16.05.2013 15:10 22,1 C 37 % 1000,1 hPa 0,0 l/m 3,9 km/h (1 Bft) N-NW 337 6,7 C 23,7 C 3,2 km/h (1 Bft)
16.05.2013 15:15 22,2 C 36 % 1000,1 hPa 0,0 l/m 3,4 km/h (1 Bft) N-NO 22 6,4 C 24,0 C 6,6 km/h (2 Bft)
16.05.2013 15:20 24,0 C 36 % 1000,1 hPa 0,0 l/m 3,2 km/h (1 Bft) S 180 8,0 C 25,0 C 6,8 km/h (2 Bft)
16.05.2013 15:25 24,3 C 31 % 999,8 hPa 0,0 l/m 3,5 km/h (1 Bft) W-NW 292 6,1 C 26,3 C 7,6 km/h (2 Bft)
16.05.2013 15:30 23,9 C 32 % 999,8 hPa 0,0 l/m 4,5 km/h (1 Bft) N-NW 337 6,2 C 26,7 C 5,5 km/h (1 Bft)
16.05.2013 15:35 23,9 C 32 % 999,8 hPa 0,0 l/m 4,8 km/h (1 Bft) NO 45 6,2 C 26,7 C 4,3 km/h (1 Bft)
16.05.2013 15:40 24,3 C 30 % 999,8 hPa 0,0 l/m 4,5 km/h (1 Bft) N-NW 337 5,6 C 27,5 C 3,4 km/h (1 Bft)
16.05.2013 15:45 23,9 C 30 % 1000,1 hPa 0,0 l/m 4,7 km/h (1 Bft) NO 45 5,3 C 27,3 C 4,3 km/h (1 Bft)
16.05.2013 15:50 24,5 C 31 % 1000,1 hPa 0,0 l/m 3,9 km/h (1 Bft) N-NW 337 6,3 C 27,5 C 2,1 km/h (1 Bft)
16.05.2013 15:55 24,6 C 30 % 1000,1 hPa 0,0 l/m 3,5 km/h (1 Bft) NO 45 5,9 C 27,8 C 6,8 km/h (2 Bft)
16.05.2013 16:00 23,5 C 32 % 1000,1 hPa 0,0 l/m 3,5 km/h (1 Bft) N-NW 337 5,8 C 27,3 C 4,8 km/h (1 Bft)
16.05.2013 16:05 23,0 C 32 % 999,9 hPa 0,0 l/m 4,5 km/h (1 Bft) N 360 5,4 C 26,6 C 5,6 km/h (1 Bft)
16.05.2013 16:10 22,7 C 36 % 999,9 hPa 0,0 l/m 4,0 km/h (1 Bft) N-NW 337 6,9 C 25,6 C 1,9 km/h (1 Bft)
16.05.2013 16:15 22,9 C 36 % 999,9 hPa 0,0 l/m 3,5 km/h (1 Bft) NO 45 7,0 C 25,3 C 2,1 km/h (1 Bft)
16.05.2013 16:20 22,9 C 37 % 999,9 hPa 0,0 l/m 1,6 km/h (1 Bft) W 270 7,4 C 25,4 C 2,3 km/h (1 Bft)
16.05.2013 16:25 22,6 C 37 % 999,5 hPa 0,0 l/m 1,1 km/h (1 Bft) W-NW 292 7,2 C 25,4 C 0,0 km/h (0 Bft)
16.05.2013 16:30 22,3 C 39 % 999,5 hPa 0,0 l/m 1,3 km/h (1 Bft) S 180 7,7 C 25,2 C 0,0 km/h (0 Bft)
16.05.2013 16:35 22,1 C 41 % 999,5 hPa 0,0 l/m 0,5 km/h (0 Bft) S-SO 157 8,2 C 25,2 C 0,0 km/h (0 Bft)
16.05.2013 16:40 22,1 C 37 % 999,5 hPa 0,0 l/m 1,8 km/h (1 Bft) SO 135 6,7 C 25,0 C 3,7 km/h (1 Bft)
16.05.2013 16:45 22,3 C 37 % 999,5 hPa 0,0 l/m 2,6 km/h (1 Bft) SO 135 6,9 C 24,8 C 3,1 km/h (1 Bft)
16.05.2013 16:50 22,2 C 42 % 999,5 hPa 0,0 l/m 1,8 km/h (1 Bft) NO 45 8,7 C 24,7 C 0,0 km/h (0 Bft)
16.05.2013 16:55 22,0 C 39 % 999,5 hPa 0,0 l/m 0,8 km/h (0 Bft) SO 135 7,4 C 24,9 C 1,6 km/h (1 Bft)
16.05.2013 17:00 22,1 C 39 % 999,5 hPa 0,0 l/m 1,3 km/h (1 Bft) S 180 7,5 C 24,9 C 5,3 km/h (1 Bft)
16.05.2013 17:05 21,8 C 41 % 999,7 hPa 0,0 l/m 2,7 km/h (1 Bft) O-SO 112 8,0 C 24,5 C 3,2 km/h (1 Bft)
16.05.2013 17:10 21,2 C 44 % 999,7 hPa 0,0 l/m 2,6 km/h (1 Bft) O 90 8,5 C 23,9 C 1,6 km/h (1 Bft)
16.05.2013 17:15 21,3 C 44 % 999,7 hPa 0,0 l/m 1,1 km/h (1 Bft) NO 45 8,5 C 23,8 C 0,0 km/h (0 Bft)
16.05.2013 17:20 21,6 C 45 % 999,7 hPa 0,0 l/m 0,5 km/h (0 Bft) S 180 9,2 C 24,1 C 3,4 km/h (1 Bft)
16.05.2013 17:25 21,5 C 45 % 999,9 hPa 0,0 l/m 0,8 km/h (0 Bft) S-SO 157 9,1 C 24,1 C 0,0 km/h (0 Bft)
16.05.2013 17:30 21,9 C 44 % 999,9 hPa 0,0 l/m 0,8 km/h (0 Bft) W-NW 292 9,1 C 24,3 C 1,6 km/h (1 Bft)
16.05.2013 17:35 21,9 C 42 % 999,9 hPa 0,0 l/m 1,3 km/h (1 Bft) S 180 8,4 C 24,3 C 2,7 km/h (1 Bft)
16.05.2013 17:40 21,8 C 42 % 999,9 hPa 0,0 l/m 1,9 km/h (1 Bft) S-SO 157 8,3 C 24,5 C 1,9 km/h (1 Bft)
16.05.2013 17:45 21,6 C 43 % 999,8 hPa 0,0 l/m 1,8 km/h (1 Bft) S-SW 202 8,5 C 24,4 C 0,0 km/h (0 Bft)
16.05.2013 17:50 21,3 C 43 % 999,8 hPa 0,0 l/m 1,8 km/h (1 Bft) S 180 8,2 C 23,9 C 0,0 km/h (0 Bft)
16.05.2013 17:55 21,1 C 44 % 999,8 hPa 0,0 l/m 1,6 km/h (1 Bft) S-SO 157 8,4 C 23,8 C 3,5 km/h (1 Bft)
16.05.2013 18:00 21,0 C 45 % 999,8 hPa 0,0 l/m 2,1 km/h (1 Bft) S-SO 157 8,6 C 23,3 C 3,4 km/h (1 Bft)
16.05.2013 18:05 21,0 C 46 % 999,8 hPa 0,0 l/m 2,1 km/h (1 Bft) S-SW 202 8,9 C 23,1 C 0,0 km/h (0 Bft)
16.05.2013 18:10 20,7 C 45 % 999,8 hPa 0,0 l/m 2,9 km/h (1 Bft) SO 135 8,3 C 22,8 C 9,3 km/h (2 Bft)
16.05.2013 18:15 20,3 C 43 % 999,8 hPa 0,0 l/m 4,2 km/h (1 Bft) S 180 7,3 C 22,4 C 6,4 km/h (2 Bft)
16.05.2013 18:20 19,8 C 48 % 999,8 hPa 0,0 l/m 6,6 km/h (2 Bft) S-SW 202 8,5 C 21,5 C 13,5 km/h (3 Bft)
16.05.2013 18:25 19,5 C 52 % 999,9 hPa 0,0 l/m 7,2 km/h (2 Bft) S-SW 202 9,4 C 20,7 C 10,5 km/h (2 Bft)
16.05.2013 18:30 19,6 C 55 % 999,9 hPa 0,0 l/m 6,4 km/h (2 Bft) SO 135 10,3 C 20,9 C 5,5 km/h (1 Bft)
16.05.2013 18:35 19,8 C 55 % 999,9 hPa 0,0 l/m 6,0 km/h (2 Bft) S-SW 202 10,5 C 21,2 C 7,6 km/h (2 Bft)
16.05.2013 18:40 20,4 C 57 % 999,9 hPa 0,0 l/m 24,9 km/h (4 Bft) S 180 11,6 C 19,9 C 6,4 km/h (2 Bft)
16.05.2013 18:45 20,3 C 56 % 999,9 hPa 0,0 l/m 4,7 km/h (1 Bft) W-NW 292 11,2 C 24,3 C 3,9 km/h (1 Bft)
16.05.2013 18:50 20,1 C 56 % 999,9 hPa 0,0 l/m 3,5 km/h (1 Bft) W-SW 247 11,0 C 24,9 C 4,5 km/h (1 Bft)
16.05.2013 18:55 20,0 C 57 % 999,9 hPa 0,0 l/m 3,7 km/h (1 Bft) S-SW 202 11,2 C 24,9 C 8,0 km/h (2 Bft)
16.05.2013 19:00 19,4 C 58 % 999,9 hPa 0,0 l/m 5,6 km/h (1 Bft) S 180 10,9 C 24,2 C 7,9 km/h (2 Bft)
16.05.2013 19:05 18,9 C 59 % 1000,1 hPa 0,0 l/m 6,3 km/h (2 Bft) W-NW 292 10,7 C 23,2 C 7,1 km/h (2 Bft)
16.05.2013 19:10 19,0 C 59 % 1000,1 hPa 0,0 l/m 5,3 km/h (1 Bft) S-SO 157 10,8 C 22,8 C 5,1 km/h (1 Bft)
16.05.2013 19:15 19,0 C 59 % 1000,1 hPa 0,0 l/m 4,2 km/h (1 Bft) W-SW 247 10,8 C 23,1 C 5,0 km/h (1 Bft)
16.05.2013 19:20 18,9 C 60 % 1000,1 hPa 0,0 l/m 3,5 km/h (1 Bft) S-SW 202 11,0 C 23,3 C 3,5 km/h (1 Bft)
16.05.2013 19:25 18,8 C 60 % 1000,3 hPa 0,0 l/m 3,5 km/h (1 Bft) S 180 10,9 C 23,4 C 4,0 km/h (1 Bft)
16.05.2013 19:30 18,6 C 62 % 1000,3 hPa 0,0 l/m 4,0 km/h (1 Bft) W-SW 247 11,2 C 23,0 C 7,6 km/h (2 Bft)
16.05.2013 19:35 18,5 C 63 % 1000,3 hPa 0,0 l/m 4,8 km/h (1 Bft) W-SW 247 11,3 C 22,6 C 12,1 km/h (2 Bft)
16.05.2013 19:40 18,0 C 64 % 1000,3 hPa 0,0 l/m 5,5 km/h (1 Bft) SW 225 11,1 C 21,8 C 4,3 km/h (1 Bft)
16.05.2013 19:45 17,9 C 65 % 1000,2 hPa 0,0 l/m 4,8 km/h (1 Bft) SW 225 11,2 C 21,6 C 2,3 km/h (1 Bft)
16.05.2013 19:50 17,7 C 65 % 1000,2 hPa 0,0 l/m 2,6 km/h (1 Bft) S 180 11,0 C 21,7 C 1,8 km/h (1 Bft)
16.05.2013 19:55 17,5 C 65 % 1000,2 hPa 0,0 l/m 1,9 km/h (1 Bft) W-SW 247 10,8 C 21,7 C 2,7 km/h (1 Bft)
16.05.2013 20:00 17,3 C 67 % 1000,2 hPa 0,0 l/m 2,6 km/h (1 Bft) S-SW 202 11,1 C 21,3 C 2,1 km/h (1 Bft)
16.05.2013 20:05 17,1 C 67 % 1000,2 hPa 0,0 l/m 2,7 km/h (1 Bft) S 180 10,9 C 21,1 C 2,7 km/h (1 Bft)
16.05.2013 20:10 16,8 C 68 % 1000,2 hPa 0,0 l/m 1,4 km/h (1 Bft) S-SW 202 10,9 C 20,7 C 0,0 km/h (0 Bft)
16.05.2013 20:15 16,6 C 69 % 1000,2 hPa 0,0 l/m 1,6 km/h (1 Bft) S 180 10,9 C 20,2 C 3,1 km/h (1 Bft)
16.05.2013 20:20 16,2 C 70 % 1000,2 hPa 0,0 l/m 2,3 km/h (1 Bft) S 180 10,7 C 19,4 C 1,6 km/h (1 Bft)
16.05.2013 20:25 16,1 C 71 % 1000,6 hPa 0,0 l/m 2,7 km/h (1 Bft) S 180 10,8 C 18,8 C 4,3 km/h (1 Bft)
16.05.2013 20:30 15,8 C 72 % 1000,6 hPa 0,0 l/m 3,1 km/h (1 Bft) S 180 10,8 C 17,9 C 3,1 km/h (1 Bft)
16.05.2013 20:35 15,5 C 72 % 1000,6 hPa 0,0 l/m 3,4 km/h (1 Bft) S 180 10,5 C 17,5 C 4,2 km/h (1 Bft)
16.05.2013 20:40 15,1 C 74 % 1000,6 hPa 0,0 l/m 3,9 km/h (1 Bft) S 180 10,5 C 16,7 C 6,1 km/h (2 Bft)
16.05.2013 20:45 14,8 C 74 % 1000,6 hPa 0,0 l/m 4,5 km/h (1 Bft) S 180 10,2 C 16,1 C 9,2 km/h (2 Bft)
16.05.2013 20:50 14,4 C 75 % 1000,6 hPa 0,0 l/m 5,0 km/h (1 Bft) SO 135 10,0 C 15,5 C 7,1 km/h (2 Bft)
16.05.2013 20:55 14,1 C 75 % 1000,6 hPa 0,0 l/m 5,1 km/h (1 Bft) S 180 9,7 C 15,1 C 5,0 km/h (1 Bft)
16.05.2013 21:00 13,9 C 75 % 1000,6 hPa 0,0 l/m 4,3 km/h (1 Bft) SO 135 9,5 C 14,8 C 2,6 km/h (1 Bft)
16.05.2013 21:05 13,7 C 75 % 1000,4 hPa 0,0 l/m 3,4 km/h (1 Bft) S 180 9,3 C 14,5 C 2,1 km/h (1 Bft)
16.05.2013 21:10 13,4 C 76 % 1000,4 hPa 0,0 l/m 2,1 km/h (1 Bft) S 180 9,3 C 14,1 C 4,3 km/h (1 Bft)
16.05.2013 21:15 13,3 C 77 % 1000,4 hPa 0,0 l/m 2,4 km/h (1 Bft) NO 45 9,4 C 13,9 C 5,8 km/h (2 Bft)
16.05.2013 21:20 13,3 C 79 % 1000,4 hPa 0,0 l/m 4,0 km/h (1 Bft) O-SO 112 9,7 C 13,9 C 0,0 km/h (0 Bft)
16.05.2013 21:25 13,2 C 80 % 1000,4 hPa 0,0 l/m 4,3 km/h (1 Bft) S-SO 157 9,8 C 13,7 C 6,6 km/h (2 Bft)
16.05.2013 21:30 13,0 C 79 % 1000,4 hPa 0,0 l/m 2,7 km/h (1 Bft) S-SW 202 9,4 C 13,6 C 0,0 km/h (0 Bft)
16.05.2013 21:35 12,8 C 80 % 1000,4 hPa 0,0 l/m 2,3 km/h (1 Bft) S 180 9,4 C 13,4 C 2,6 km/h (1 Bft)
16.05.2013 21:40 12,8 C 81 % 1000,4 hPa 0,0 l/m 2,7 km/h (1 Bft) S-SO 157 9,6 C 13,2 C 4,0 km/h (1 Bft)
16.05.2013 21:45 12,8 C 81 % 1000,8 hPa 0,0 l/m 3,2 km/h (1 Bft) SW 225 9,6 C 13,3 C 1,8 km/h (1 Bft)
16.05.2013 21:50 12,9 C 82 % 1000,8 hPa 0,0 l/m 2,6 km/h (1 Bft) S 180 9,9 C 13,2 C 4,5 km/h (1 Bft)
16.05.2013 21:55 13,0 C 82 % 1000,8 hPa 0,0 l/m 1,8 km/h (1 Bft) O-SO 112 10,0 C 13,3 C 0,0 km/h (0 Bft)
16.05.2013 22:00 13,1 C 82 % 1000,8 hPa 0,0 l/m 2,3 km/h (1 Bft) S-SO 157 10,1 C 13,4 C 3,4 km/h (1 Bft)
16.05.2013 22:05 13,1 C 82 % 1001,1 hPa 0,0 l/m 2,4 km/h (1 Bft) S 180 10,1 C 13,4 C 5,0 km/h (1 Bft)
16.05.2013 22:10 13,1 C 82 % 1001,1 hPa 0,0 l/m 2,6 km/h (1 Bft) S-SO 157 10,1 C 13,4 C 3,9 km/h (1 Bft)
16.05.2013 22:15 12,9 C 83 % 1001,1 hPa 0,0 l/m 2,7 km/h (1 Bft) S-SO 157 10,1 C 13,4 C 4,2 km/h (1 Bft)
16.05.2013 22:20 12,8 C 84 % 1001,1 hPa 0,0 l/m 2,6 km/h (1 Bft) S 180 10,2 C 13,2 C 2,4 km/h (1 Bft)
16.05.2013 22:25 12,8 C 84 % 1001,1 hPa 0,0 l/m 2,7 km/h (1 Bft) S 180 10,2 C 13,2 C 3,9 km/h (1 Bft)
16.05.2013 22:30 12,9 C 84 % 1001,1 hPa 0,0 l/m 1,9 km/h (1 Bft) S 180 10,3 C 13,2 C 2,1 km/h (1 Bft)
16.05.2013 22:35 12,7 C 83 % 1001,1 hPa 0,0 l/m 1,9 km/h (1 Bft) S 180 9,9 C 13,0 C 3,2 km/h (1 Bft)
16.05.2013 22:40 12,4 C 83 % 1001,1 hPa 0,0 l/m 2,4 km/h (1 Bft) S 180 9,6 C 12,9 C 4,3 km/h (1 Bft)
16.05.2013 22:45 12,3 C 84 % 1001,2 hPa 0,0 l/m 2,6 km/h (1 Bft) SO 135 9,7 C 12,7 C 1,9 km/h (1 Bft)
16.05.2013 22:50 12,4 C 84 % 1001,2 hPa 0,0 l/m 1,4 km/h (1 Bft) S 180 9,8 C 12,6 C 2,9 km/h (1 Bft)
16.05.2013 22:55 12,3 C 84 % 1001,2 hPa 0,0 l/m 1,1 km/h (1 Bft) O-SO 112 9,7 C 12,4 C 2,1 km/h (1 Bft)
16.05.2013 23:00 12,2 C 84 % 1001,2 hPa 0,0 l/m 1,4 km/h (1 Bft) S-SO 157 9,6 C 12,3 C 3,2 km/h (1 Bft)
16.05.2013 23:05 12,2 C 84 % 1001,2 hPa 0,0 l/m 1,6 km/h (1 Bft) O-SO 112 9,6 C 12,3 C 0,0 km/h (0 Bft)
16.05.2013 23:10 12,2 C 85 % 1001,2 hPa 0,0 l/m 1,8 km/h (1 Bft) S 180 9,8 C 12,1 C 2,3 km/h (1 Bft)
16.05.2013 23:15 12,3 C 85 % 1001,2 hPa 0,0 l/m 1,1 km/h (1 Bft) O-NO 67 9,9 C 12,2 C 2,7 km/h (1 Bft)
16.05.2013 23:20 12,3 C 85 % 1001,2 hPa 0,0 l/m 1,3 km/h (1 Bft) O 90 9,9 C 12,2 C 0,0 km/h (0 Bft)
16.05.2013 23:25 12,1 C 84 % 1001,2 hPa 0,0 l/m 1,3 km/h (1 Bft) SO 135 9,5 C 12,1 C 0,0 km/h (0 Bft)
16.05.2013 23:30 11,9 C 84 % 1001,2 hPa 0,0 l/m 1,0 km/h (0 Bft) S 180 9,3 C 12,0 C 0,0 km/h (0 Bft)
16.05.2013 23:35 11,8 C 84 % 1001,2 hPa 0,0 l/m 1,0 km/h (0 Bft) S-SO 157 9,2 C 12,0 C 2,6 km/h (1 Bft)
16.05.2013 23:40 11,9 C 84 % 1001,2 hPa 0,0 l/m 1,1 km/h (1 Bft) S-SW 202 9,3 C 12,0 C 2,4 km/h (1 Bft)
16.05.2013 23:45 11,8 C 84 % 1001,2 hPa 0,0 l/m 1,3 km/h (1 Bft) NO 45 9,2 C 11,9 C 1,9 km/h (1 Bft)
16.05.2013 23:50 12,0 C 85 % 1001,2 hPa 0,0 l/m 1,1 km/h (1 Bft) O 90 9,6 C 12,0 C 1,9 km/h (1 Bft)
16.05.2013 23:55 12,1 C 85 % 1001,2 hPa 0,0 l/m 1,4 km/h (1 Bft) O-SO 112 9,7 C 12,0 C 2,1 km/h (1 Bft)
_ Min-Zeit 03:20 15:55 17:00 - 06:40 - - 03:15 03:55 23:30
Minimum _ 5,2 C 30 % 999,5 hPa - 0,0 km/h (0 Bft) - - 1,7 C 4,6 C 0,0 km/h (0 Bft)
_ Max-Zeit 15:55 07:50 00:40 23:55 18:40 - - 18:40 15:55 10:30
Maximum _ 24,6 C 90 % 1006,0 hPa 0,0 l/m 24,9 km/h
S (4 Bft)
- - 11,6 C 27,8 C 21,4 km/h
N (4 Bft)
Durchschnitt _ 14,5 C 65 % 1001,7 hPa #0,0 l/m 3,1 km/h (1 Bft) S - 7,1 C 15,4 C 3,9 km/h (1 Bft)